Time,TemperatureF,DewpointF,PressureIn,WindDirection,WindDirectionDegrees,WindSpeedMPH,WindSpeedGustMPH,Humidity,HourlyPrecipIn,Conditions,Clouds,dailyrainin,SoftwareType,DateUTC
2013-06-22 09:02:00,53.0,35.0,-100.00,WNW,292,2.0,5.0,49,-99.99,,,-99.99,,2013-06-22 15:02:00,
2013-06-22 09:53:00,57.0,33.0,-100.00,WNW,283,7.0,9.0,40,-99.99,,,-99.99,,2013-06-22 15:53:00,
2013-06-22 10:02:00,59.0,32.0,-100.00,SSW,194,1.0,8.0,36,-99.99,,,-99.99,,2013-06-22 16:02:00,
2013-06-22 10:12:00,59.0,31.0,-100.00,NW,313,4.0,7.0,34,-99.99,,,-99.99,,2013-06-22 16:12:00,
2013-06-22 10:22:00,59.0,31.0,-100.00,NW,313,4.0,7.0,34,-99.99,,,-99.99,,2013-06-22 16:22:00,
2013-06-22 10:52:00,62.0,32.0,-100.00,West,274,6.0,8.0,32,-99.99,,,-99.99,,2013-06-22 16:52:00,
2013-06-22 11:01:00,63.0,32.0,-100.00,NNE,30,5.0,6.0,30,-99.99,,,-99.99,,2013-06-22 17:01:00,
2013-06-22 11:22:00,64.0,34.0,-100.00,NNW,344,6.0,10.0,32,-99.99,,,-99.99,,2013-06-22 17:22:00,
2013-06-22 11:34:00,64.0,33.0,-100.00,NNW,333,8.0,10.0,30,-99.99,,,-99.99,,2013-06-22 17:34:00,
2013-06-22 11:43:00,66.0,32.0,-100.00,NNW,348,7.0,9.0,28,-99.99,,,-99.99,,2013-06-22 17:43:00,
2013-06-22 11:52:00,68.0,30.0,-100.00,ENE,72,3.0,7.0,24,-99.99,,,-99.99,,2013-06-22 17:52:00,
2013-06-22 12:01:00,67.0,31.0,-100.00,North,351,8.0,11.0,25,-99.99,,,-99.99,,2013-06-22 18:01:00,
2013-06-22 12:11:00,67.0,31.0,-100.00,North,351,8.0,11.0,25,-99.99,,,-99.99,,2013-06-22 18:11:00,
2013-06-22 12:22:00,70.0,28.0,-100.00,WNW,298,13.0,17.0,20,-99.99,,,-99.99,,2013-06-22 18:22:00,
2013-06-22 12:33:00,70.0,28.0,-100.00,WNW,298,13.0,17.0,20,-99.99,,,-99.99,,2013-06-22 18:33:00,
2013-06-22 13:21:00,71.0,19.0,-100.00,WSW,252,18.0,22.0,13,-99.99,,,-99.99,,2013-06-22 19:21:00,
2013-06-22 14:22:00,72.0,21.0,-100.00,West,277,12.0,19.0,14,-99.99,,,-99.99,,2013-06-22 20:22:00,
2013-06-22 14:42:00,73.0,24.0,-100.00,SW,231,11.0,16.0,16,-99.99,,,-99.99,,2013-06-22 20:42:00,
2013-06-22 14:53:00,72.0,24.0,-100.00,SW,230,15.0,21.0,16,-99.99,,,-99.99,,2013-06-22 20:53:00,
2013-06-22 15:11:00,73.0,25.0,-100.00,WSW,258,16.0,22.0,16,-99.99,,,-99.99,,2013-06-22 21:11:00,
2013-06-22 15:53:00,73.0,25.0,-100.00,WSW,255,14.0,21.0,16,-99.99,,,-99.99,,2013-06-22 21:53:00,
2013-06-22 16:12:00,74.0,26.0,-100.00,West,259,10.0,16.0,16,-99.99,,,-99.99,,2013-06-22 22:12:00,
2013-06-22 16:33:00,73.0,24.0,-100.00,WSW,258,13.0,25.0,15,-99.99,,,-99.99,,2013-06-22 22:33:00,
2013-06-22 16:43:00,73.0,25.0,-100.00,WSW,256,15.0,19.0,16,-99.99,,,-99.99,,2013-06-22 22:43:00,
2013-06-22 16:52:00,73.0,24.0,-100.00,SSW,204,15.0,26.0,15,-99.99,,,-99.99,,2013-06-22 22:52:00,
2013-06-22 17:11:00,74.0,23.0,-100.00,SW,232,14.0,17.0,14,-99.99,,,-99.99,,2013-06-22 23:11:00,
2013-06-22 17:22:00,74.0,22.0,-100.00,WSW,246,12.0,16.0,14,-99.99,,,-99.99,,2013-06-22 23:22:00,
2013-06-22 17:34:00,73.0,23.0,-100.00,WSW,247,9.0,16.0,14,-99.99,,,-99.99,,2013-06-22 23:34:00,
2013-06-22 17:42:00,75.0,23.0,-100.00,WSW,250,6.0,11.0,14,-99.99,,,-99.99,,2013-06-22 23:42:00,
2013-06-22 18:01:00,75.0,21.0,-100.00,West,264,13.0,18.0,13,-99.99,,,-99.99,,2013-06-23 00:01:00,
2013-06-22 18:11:00,74.0,22.0,-100.00,WNW,288,11.0,18.0,13,-99.99,,,-99.99,,2013-06-23 00:11:00,
2013-06-22 18:22:00,74.0,21.0,-100.00,WNW,282,11.0,19.0,13,-99.99,,,-99.99,,2013-06-23 00:22:00,
2013-06-22 18:33:00,74.0,20.0,-100.00,SW,224,13.0,16.0,12,-99.99,,,-99.99,,2013-06-23 00:33:00,
2013-06-22 18:42:00,74.0,20.0,-100.00,SW,224,13.0,16.0,12,-99.99,,,-99.99,,2013-06-23 00:42:00,
2013-06-22 18:52:00,74.0,19.0,-100.00,SW,227,11.0,18.0,12,-99.99,,,-99.99,,2013-06-23 00:52:00,
2013-06-22 19:11:00,73.0,19.0,-100.00,SW,225,13.0,18.0,12,-99.99,,,-99.99,,2013-06-23 01:11:00,
2013-06-22 19:21:00,73.0,21.0,-100.00,West,262,10.0,14.0,13,-99.99,,,-99.99,,2013-06-23 01:21:00,
2013-06-22 19:32:00,74.0,22.0,-100.00,West,271,10.0,13.0,14,-99.99,,,-99.99,,2013-06-23 01:32:00,
2013-06-22 19:42:00,73.0,23.0,-100.00,WNW,282,8.0,13.0,15,-99.99,,,-99.99,,2013-06-23 01:42:00,
2013-06-22 19:52:00,73.0,23.0,-100.00,WSW,246,8.0,11.0,15,-99.99,,,-99.99,,2013-06-23 01:52:00,
2013-06-22 20:01:00,72.0,23.0,-100.00,West,265,9.0,13.0,15,-99.99,,,-99.99,,2013-06-23 02:01:00,
2013-06-22 20:11:00,72.0,23.0,-100.00,West,265,9.0,13.0,15,-99.99,,,-99.99,,2013-06-23 02:11:00,
2013-06-22 20:21:00,72.0,23.0,-100.00,WSW,257,9.0,13.0,15,-99.99,,,-99.99,,2013-06-23 02:21:00,
2013-06-22 20:31:00,71.0,23.0,-100.00,West,259,10.0,14.0,16,-99.99,,,-99.99,,2013-06-23 02:31:00,
2013-06-22 20:41:00,67.0,28.0,-100.00,NW,317,5.0,6.0,23,-99.99,,,-99.99,,2013-06-23 02:41:00,
2013-06-22 20:52:00,66.0,29.0,-100.00,NNW,339,3.0,5.0,24,-99.99,,,-99.99,,2013-06-23 02:52:00,
2013-06-22 21:01:00,65.0,28.0,-100.00,NW,321,2.0,4.0,25,-99.99,,,-99.99,,2013-06-23 03:01:00,
2013-06-22 21:11:00,64.0,26.0,-100.00,SSE,156,2.0,3.0,24,-99.99,,,-99.99,,2013-06-23 03:11:00,
2013-06-22 21:21:00,62.0,24.0,-100.00,SW,216,6.0,6.0,23,-99.99,,,-99.99,,2013-06-23 03:21:00,
2013-06-22 21:31:00,61.0,30.0,-100.00,NNE,16,4.0,5.0,30,-99.99,,,-99.99,,2013-06-23 03:31:00,
2013-06-22 21:51:00,61.0,31.0,-100.00,SSW,195,0.0,5.0,32,-99.99,,,-99.99,,2013-06-23 03:51:00,
2013-06-22 22:01:00,61.0,29.0,-100.00,West,266,7.0,7.0,29,-99.99,,,-99.99,,2013-06-23 04:01:00,
2013-06-22 22:11:00,60.0,29.0,-100.00,WNW,286,7.0,7.0,30,-99.99,,,-99.99,,2013-06-23 04:11:00,
2013-06-22 22:21:00,58.0,29.0,-100.00,WNW,289,6.0,7.0,33,-99.99,,,-99.99,,2013-06-23 04:21:00,
2013-06-22 22:31:00,58.0,31.0,-100.00,WNW,297,6.0,8.0,36,-99.99,,,-99.99,,2013-06-23 04:31:00,
2013-06-22 22:42:00,55.0,29.0,-100.00,ESE,121,3.0,4.0,36,-99.99,,,-99.99,,2013-06-23 04:42:00,
2013-06-22 22:52:00,53.0,27.0,-100.00,South,173,7.0,7.0,37,-99.99,,,-99.99,,2013-06-23 04:52:00,
2013-06-22 23:01:00,52.0,29.0,-100.00,SE,140,3.0,5.0,42,-99.99,,,-99.99,,2013-06-23 05:01:00,
2013-06-22 23:10:00,51.0,27.0,-100.00,ESE,116,1.0,2.0,39,-99.99,,,-99.99,,2013-06-23 05:10:00,
2013-06-22 23:21:00,51.0,28.0,-100.00,SSE,148,3.0,4.0,41,-99.99,,,-99.99,,2013-06-23 05:21:00,